Binghamton, NY

4:39 PM EST on December 12, 2019 (GMT -0500)
Binghamton Regional-Link

Weather History for KBGM - November, 2019

Change the Weather History Date:

Monday, November 18, 2019

  Actual Average Record
Temperature  
Mean Temperature 33 °F 37 °F  
Max Temperature 38 °F 44 °F 65 °F (1958)
Min Temperature 28 °F 31 °F 11 °F (1959)
Degree Days  
Heating Degree Days 32 28  
Month to date heating degree days 605 442  
Since 1 July heating degree days 1217 1214  
Cooling Degree Days 0 0  
Month to date cooling degree days 0 0  
Year to date cooling degree days 389 381  
Moisture  
Dew Point 31 °F    
Average Humidity 91    
Maximum Humidity 100    
Minimum Humidity 76    
Precipitation  
Precipitation T in 0.11 in 0.96 in (1968)
Month to date precipitation 0.82 1.96  
Year to date precipitation 39.33 35.13  
Snow  
Snow T in 0.20 in 5.50 in (1986)
Month to date snowfall 4.0 2.4  
Since 1 July snowfall 4.0 3.4  
Since 1 September snowfall 4.0 3.4  
Snow Depth T in    
Sea Level Pressure  
Sea Level Pressure 29.78 in    
Wind  
Wind Speed 5 mph ()    
Max Wind Speed 14 mph    
Max Gust Speed 16 mph    
Visibility 6.6 miles    
Events Fog , Snow    
T = Trace of Precipitation, MM = Missing Value Source: Averaged Metar Reports

Daily Weather History Graph

Daily Weather History Graph

Search for Another Location

Airport or City:

Astronomy

Nov. 18, 2019 Rise Set
Actual Time 6:57 AM EST 4:39 PM EST
Civil Twilight 6:27 AM EST 5:10 PM EST
Nautical Twilight 5:53 AM EST 5:44 PM EST
Astronomical Twilight 5:20 AM EST 6:17 PM EST
Moon 10:22 PM EST (11/18) 12:27 PM EST (11/18)
Length of Visible Light 10h 42m
Length of Day
9h 42m
Waning Gibbous, 63% of the Moon is Illuminated
Nov 18
Waning Gibbous
Nov 19
Last Quarter
Nov 26
New
Dec 4
First Quarter
Dec 12
Full

Hourly Weather History & Observations

Time (EST) Temp. Windchill Dew Point Humidity Pressure Visibility Wind Dir Wind Speed Gust Speed Precip Events Conditions
12:53 AM 30.0 °F 21.1 °F 25.0 °F 82% 30.00 in 10.0 mi ESE 10.4 mph - N/A   Overcast
1:53 AM 30.0 °F 21.1 °F 25.0 °F 82% 29.99 in 6.0 mi ESE 10.4 mph - 0.00 in Snow Light Snow
2:53 AM 30.0 °F 21.7 °F 26.1 °F 85% 29.97 in 10.0 mi ESE 9.2 mph - 0.00 in   Overcast
3:53 AM 30.0 °F 23.2 °F 26.1 °F 85% 29.96 in 10.0 mi ESE 6.9 mph - N/A   Overcast
4:53 AM 30.0 °F 24.1 °F 26.1 °F 85% 29.95 in 10.0 mi ESE 5.8 mph - N/A   Overcast
5:53 AM 30.0 °F 23.2 °F 26.1 °F 85% 29.94 in 10.0 mi ESE 6.9 mph - N/A   Overcast
6:53 AM 28.9 °F 20.4 °F 26.1 °F 89% 29.94 in 10.0 mi ESE 9.2 mph - N/A   Overcast
7:04 AM 28.0 °F 20.0 °F 26.1 °F 92% 29.89 in 10.0 mi ESE 8.1 mph - N/A   Overcast
7:13 AM 28.9 °F 21.1 °F 26.1 °F 89% 29.89 in 10.0 mi ESE 8.1 mph - N/A   Overcast
7:53 AM 28.9 °F 22.8 °F 27.0 °F 92% 29.94 in 10.0 mi East 5.8 mph - N/A   Overcast
8:53 AM 30.9 °F 26.2 °F 28.0 °F 89% 29.92 in 10.0 mi SE 4.6 mph - N/A   Mostly Cloudy
9:41 AM 33.1 °F 28.7 °F 28.9 °F 85% 29.85 in 10.0 mi SE 4.6 mph - N/A   Mostly Cloudy
9:53 AM 33.1 °F 30.0 °F 28.9 °F 85% 29.90 in 10.0 mi SE 3.5 mph - N/A   Overcast
10:18 AM 34.0 °F 28.8 °F 30.0 °F 85% 29.84 in 10.0 mi ESE 5.8 mph - N/A   Overcast
10:53 AM 35.1 °F 31.0 °F 30.0 °F 82% 29.87 in 10.0 mi Variable 4.6 mph - N/A   Overcast
11:53 AM 35.1 °F 31.0 °F 30.0 °F 82% 29.84 in 10.0 mi East 4.6 mph - N/A   Overcast
12:07 PM 35.1 °F 32.2 °F 30.9 °F 85% 29.79 in 10.0 mi SSE 3.5 mph - N/A   Overcast
12:42 PM 36.0 °F 33.3 °F 30.9 °F 82% 29.77 in 10.0 mi SE 3.5 mph - N/A   Overcast
12:53 PM 37.0 °F 34.5 °F 30.9 °F 79% 29.82 in 10.0 mi East 3.5 mph - N/A   Overcast
12:59 PM 37.0 °F - 30.9 °F 79% 29.77 in 10.0 mi Calm Calm - N/A   Overcast
1:14 PM 37.0 °F 34.5 °F 30.9 °F 79% 29.76 in 10.0 mi ESE 3.5 mph - N/A   Overcast
1:53 PM 37.9 °F 35.5 °F 32.0 °F 79% 29.79 in 10.0 mi East 3.5 mph - N/A   Mostly Cloudy
2:53 PM 37.9 °F 34.4 °F 32.0 °F 79% 29.77 in 10.0 mi ESE 4.6 mph - N/A   Overcast
3:53 PM 36.0 °F 32.1 °F 33.1 °F 89% 29.75 in 10.0 mi SE 4.6 mph - N/A   Overcast
4:27 PM 35.1 °F 31.0 °F 34.0 °F 96% 29.71 in 2.5 mi SE 4.6 mph - N/A   Overcast
4:30 PM 35.1 °F 31.0 °F 34.0 °F 96% 29.71 in 1.8 mi ESE 4.6 mph - N/A   Overcast
4:53 PM 35.1 °F 32.2 °F 34.0 °F 96% 29.75 in 1.5 mi East 3.5 mph - N/A   Overcast
5:08 PM 35.1 °F 32.2 °F 34.0 °F 96% 29.71 in 3.0 mi ESE 3.5 mph - N/A   Overcast
5:31 PM 35.1 °F - 34.0 °F 96% 29.71 in 3.0 mi Calm Calm - N/A   Overcast
5:53 PM 35.1 °F 32.2 °F 34.0 °F 96% 29.75 in 3.0 mi ESE 3.5 mph - N/A   Overcast
6:04 PM 35.1 °F - 34.0 °F 96% 29.71 in 3.0 mi Calm Calm - N/A   Overcast
6:21 PM 35.1 °F 31.0 °F 34.0 °F 96% 29.70 in 2.5 mi East 4.6 mph - N/A   Overcast
6:41 PM 35.1 °F - 34.0 °F 96% 29.70 in 2.0 mi Calm Calm - N/A   Overcast
6:53 PM 34.0 °F - 34.0 °F 100% 29.75 in 2.0 mi Calm Calm - N/A   Overcast
7:06 PM 35.1 °F - 34.0 °F 96% 29.70 in 2.0 mi Calm Calm - N/A   Overcast
7:13 PM 35.1 °F - 34.0 °F 96% 29.70 in 7.0 mi Calm Calm - N/A   Overcast
7:31 PM 35.1 °F - 33.1 °F 92% 29.70 in 9.0 mi Calm Calm - N/A   Overcast
7:53 PM 34.0 °F 31.0 °F 33.1 °F 96% 29.73 in 10.0 mi ENE 3.5 mph - N/A   Overcast
8:02 PM 34.0 °F 31.0 °F 33.1 °F 96% 29.68 in 10.0 mi NE 3.5 mph - N/A   Overcast
8:23 PM 34.0 °F - 34.0 °F 100% 29.69 in 10.0 mi Calm Calm - N/A   Overcast
8:46 PM 34.0 °F 31.0 °F 33.1 °F 96% 29.70 in 10.0 mi WNW 3.5 mph - N/A   Overcast
8:53 PM 34.0 °F 31.0 °F 33.1 °F 96% 29.74 in 10.0 mi WNW 3.5 mph - N/A   Overcast
9:44 PM 34.0 °F 29.8 °F 33.1 °F 96% 29.67 in 2.5 mi NNW 4.6 mph - N/A   Overcast
9:53 PM 34.0 °F 29.8 °F 33.1 °F 96% 29.71 in 2.0 mi NNW 4.6 mph - N/A   Overcast
10:34 PM 34.0 °F - 33.1 °F 96% 29.67 in 2.0 mi Calm Calm - N/A   Overcast
10:50 PM 33.8 °F 30.8 °F 33.8 °F 100% 29.67 in 1.5 mi West 3.5 mph - N/A   Overcast
10:53 PM 34.0 °F 31.0 °F 33.1 °F 96% 29.71 in 1.2 mi West 3.5 mph - N/A   Overcast
11:13 PM 34.0 °F - 33.1 °F 96% 29.67 in 0.5 mi Calm Calm - N/A Fog Fog
11:31 PM 34.0 °F 31.0 °F 33.1 °F 96% 29.68 in 1.2 mi West 3.5 mph - N/A   Overcast
11:35 PM 34.0 °F 31.0 °F 33.1 °F 96% 29.68 in 0.8 mi West 3.5 mph - N/A   Mist
11:50 PM 33.8 °F - 33.8 °F 100% 29.67 in 2.0 mi Calm Calm - N/A   Overcast
11:53 PM 34.0 °F - 33.1 °F 96% 29.71 in 3.0 mi Calm Calm - N/A   Overcast